User: anonymous   Login
Location: Drayton Valley
(53.2170°N, 114.9830°W)
Time: 01:06:48
(UTC-06:00)
Language:

MOZ.5/SAFIR/RUBIN 5/SL-8 - Orbit

View from above orbital plane
View from above orbital plane
View from above satellite
View from above satellite

Ground track
Ground track

The orbit data is extracted from the following two-line orbital elements,

1 28898U 05043G   15185.58367913  .00000229  00000-0  56893-4 0  9997
2 28898 097.8475 359.2580 0018502 272.7584 087.1499 14.59925836515708
Epoch (UTC): 04 July 2015 14:00:29
Eccentricity: 0.0018502
inclination: 97.8475°
perigee height: 680 km
apogee height: 706 km
right ascension of ascending node: 359.2580°
argument of perigee: 272.7584°
revolutions per day: 14.59925836
mean anomaly at epoch: 87.1499°
orbit number at epoch: 51570

The dashed part of the orbit path shows where the satellite is in the earth's shadow,  

DLR